| time (UTC) | temp C | wind direction | speed KPH | gust KPH | rain 1hr cm | rain 24hr cm | rain mn cm | humidity % | barometer mb |
| 20260510190703 | 22 | 76 | 9.7 | 14.5 | 0.00 | 0.00 | 0.00 | 34 | 1021.6 |
| 20260510190204 | 21 | 18 | 9.7 | 16.1 | 0.00 | 0.00 | 0.00 | 37 | 1021.3 |
| 20260510185703 | 21 | 32 | 8.0 | 19.3 | 0.00 | 0.00 | 0.00 | 34 | 1021.5 |
| 20260510185204 | 22 | 29 | 9.7 | 24.1 | 0.00 | 0.00 | 0.00 | 33 | 1021.8 |
| 20260510184704 | 22 | 355 | 4.8 | 22.5 | 0.00 | 0.00 | 0.00 | 39 | 1021.5 |
| 20260510183706 | 21 | 355 | 8.0 | 16.1 | 0.00 | 0.00 | 0.00 | 35 | 1021.4 |
| 20260510183203 | 21 | 163 | 8.0 | 14.5 | 0.00 | 0.00 | 0.00 | 35 | 1021.6 |
| 20260510182203 | 22 | 26 | 8.0 | 16.1 | 0.00 | 0.00 | 0.00 | 36 | 1021.2 |
| 20260510181203 | 21 | 290 | 1.6 | 14.5 | 0.00 | 0.00 | 0.00 | 35 | 1021.0 |
| 20260510180705 | 21 | 53 | 4.8 | 16.1 | 0.00 | 0.00 | 0.00 | 36 | 1021.0 |
| 20260510180204 | 21 | 25 | 8.0 | 25.7 | 0.00 | 0.00 | 0.00 | 35 | 1020.8 |
| 20260510175703 | 21 | 31 | 9.7 | 14.5 | 0.00 | 0.00 | 0.00 | 34 | 1021.1 |
| 20260510175204 | 21 | 130 | 3.2 | 12.9 | 0.00 | 0.00 | 0.00 | 36 | 1020.8 |
| 20260510174703 | 21 | 238 | 4.8 | 22.5 | 0.00 | 0.00 | 0.00 | 35 | 1020.8 |
| 20260510174204 | 21 | 321 | 4.8 | 16.1 | 0.00 | 0.00 | 0.00 | 37 | 1020.8 |
| 20260510173204 | 21 | 351 | 8.0 | 22.5 | 0.00 | 0.00 | 0.00 | 35 | 1021.0 |
| 20260510172703 | 21 | 6 | 8.0 | 16.1 | 0.00 | 0.00 | 0.00 | 34 | 1021.0 |
| 20260510172204 | 21 | 298 | 8.0 | 14.5 | 0.00 | 0.00 | 0.00 | 37 | 1020.8 |
| 20260510171703 | 21 | 12 | 4.8 | 20.9 | 0.00 | 0.00 | 0.00 | 36 | 1020.8 |
| 20260510171204 | 21 | 356 | 8.0 | 20.9 | 0.00 | 0.00 | 0.00 | 36 | 1020.8 |
| 20260510170703 | 21 | 30 | 11.3 | 22.5 | 0.00 | 0.00 | 0.00 | 36 | 1020.8 |
| 20260510170204 | 20 | 321 | 3.2 | 24.1 | 0.00 | 0.00 | 0.00 | 41 | 1020.9 |
| 20260510165704 | 21 | 8 | 14.5 | 22.5 | 0.00 | 0.00 | 0.00 | 34 | 1020.9 |
| 20260510165204 | 20 | 42 | 4.8 | 22.5 | 0.00 | 0.00 | 0.00 | 37 | 1020.9 |
| 20260510164703 | 20 | 124 | 9.7 | 32.2 | 0.00 | 0.00 | 0.00 | 37 | 1020.7 |
| 20260510164203 | 20 | 8 | 9.7 | 29.0 | 0.00 | 0.00 | 0.00 | 37 | 1020.7 |
| 20260510163704 | 20 | 49 | 11.3 | 27.4 | 0.00 | 0.00 | 0.00 | 36 | 1020.7 |
| 20260510163204 | 20 | 258 | 8.0 | 20.9 | 0.00 | 0.00 | 0.00 | 41 | 1020.8 |
| 20260510161704 | 20 | 0 | 8.0 | 27.4 | 0.00 | 0.00 | 0.00 | 40 | 1020.4 |
| 20260510161203 | 19 | 333 | 3.2 | 22.5 | 0.00 | 0.00 | 0.00 | 39 | 1020.2 |
| 20260510160203 | 19 | 3 | 3.2 | 24.1 | 0.00 | 0.00 | 0.00 | 42 | 1020.2 |
| 20260510155704 | 19 | 20 | 14.5 | 20.9 | 0.00 | 0.00 | 0.00 | 40 | 1020.2 |
| 20260510155204 | 18 | 43 | 4.8 | 20.9 | 0.00 | 0.00 | 0.00 | 42 | 1020.1 |
| 20260510154203 | 18 | 35 | 8.0 | 22.5 | 0.00 | 0.00 | 0.00 | 41 | 1019.9 |
| 20260510153204 | 18 | 283 | 8.0 | 22.5 | 0.00 | 0.00 | 0.00 | 43 | 1020.3 |
| 20260510152703 | 18 | 13 | 4.8 | 27.4 | 0.00 | 0.00 | 0.00 | 42 | 1020.3 |
| 20260510152203 | 18 | 21 | 4.8 | 20.9 | 0.00 | 0.00 | 0.00 | 44 | 1020.4 |
| 20260510151703 | 18 | 358 | 8.0 | 22.5 | 0.00 | 0.00 | 0.00 | 44 | 1020.4 |
| 20260510150203 | 18 | 146 | 9.7 | 27.4 | 0.00 | 0.00 | 0.00 | 43 | 1020.2 |
| 20260510145703 | 18 | 337 | 9.7 | 27.4 | 0.00 | 0.00 | 0.00 | 43 | 1020.2 |
| 20260510145204 | 17 | 357 | 6.4 | 12.9 | 0.00 | 0.00 | 0.00 | 47 | 1020.2 |
| 20260510144703 | 17 | 272 | 4.8 | 24.1 | 0.00 | 0.00 | 0.00 | 46 | 1020.1 |
| 20260510143703 | 18 | 33 | 4.8 | 24.1 | 0.00 | 0.00 | 0.00 | 49 | 1020.2 |
| 20260510143203 | 18 | 51 | 9.7 | 29.0 | 0.00 | 0.00 | 0.00 | 50 | 1020.2 |
| 20260510142704 | 18 | 32 | 8.0 | 20.9 | 0.00 | 0.00 | 0.00 | 49 | 1020.1 |
| 20260510142204 | 17 | 105 | 6.4 | 12.9 | 0.00 | 0.00 | 0.00 | 51 | 1020.0 |
| 20260510141703 | 17 | 118 | 8.0 | 20.9 | 0.00 | 0.00 | 0.00 | 51 | 1019.7 |
| 20260510141203 | 17 | 14 | 12.9 | 22.5 | 0.00 | 0.00 | 0.00 | 51 | 1019.4 |
| 20260510140704 | 17 | 318 | 4.8 | 24.1 | 0.00 | 0.00 | 0.00 | 51 | 1019.3 |
| 20260510140204 | 17 | 300 | 6.4 | 14.5 | 0.00 | 0.00 | 0.00 | 51 | 1019.5 |
| 20260510135704 | 17 | 341 | 6.4 | 16.1 | 0.00 | 0.00 | 0.00 | 50 | 1019.3 |
| 20260510135204 | 17 | 356 | 8.0 | 24.1 | 0.00 | 0.00 | 0.00 | 49 | 1019.2 |
| 20260510134704 | 17 | 57 | 8.0 | 24.1 | 0.00 | 0.00 | 0.00 | 49 | 1019.1 |
| 20260510134204 | 17 | 353 | 4.8 | 32.2 | 0.00 | 0.00 | 0.00 | 54 | 1019.1 |
| 20260510133704 | 17 | 289 | 4.8 | 12.9 | 0.00 | 0.00 | 0.00 | 56 | 1019.1 |
| 20260510133204 | 17 | 91 | 3.2 | 25.7 | 0.00 | 0.00 | 0.00 | 58 | 1018.9 |
| 20260510132704 | 17 | 3 | 4.8 | 25.7 | 0.00 | 0.00 | 0.00 | 59 | 1019.1 |
| 20260510132203 | 16 | 50 | 6.4 | 16.1 | 0.00 | 0.00 | 0.00 | 60 | 1018.7 |
| 20260510130704 | 16 | 18 | 4.8 | 14.5 | 0.00 | 0.00 | 0.00 | 64 | 1018.4 |
| 20260510130203 | 16 | 45 | 9.7 | 14.5 | 0.00 | 0.00 | 0.00 | 65 | 1018.4 |
| 20260510125704 | 16 | 219 | 6.4 | 22.5 | 0.00 | 0.00 | 0.00 | 66 | 1018.2 |
| 20260510124703 | 16 | 141 | 6.4 | 12.9 | 0.00 | 0.00 | 0.00 | 69 | 1018.0 |
| 20260510124204 | 15 | 140 | 6.4 | 20.9 | 0.00 | 0.00 | 0.00 | 72 | 1018.0 |
| 20260510123703 | 15 | 22 | 9.7 | 20.9 | 0.00 | 0.00 | 0.00 | 74 | 1018.0 |
| 20260510123204 | 15 | 262 | 8.0 | 16.1 | 0.00 | 0.00 | 0.00 | 75 | 1017.9 |
| 20260510122703 | 15 | 24 | 3.2 | 14.5 | 0.00 | 0.00 | 0.00 | 77 | 1018.0 |
| 20260510122204 | 15 | 164 | 4.8 | 19.3 | 0.00 | 0.00 | 0.00 | 79 | 1017.8 |
| 20260510121703 | 15 | 334 | 4.8 | 11.3 | 0.00 | 0.00 | 0.00 | 81 | 1017.8 |
| 20260510121203 | 15 | 44 | 1.6 | 12.9 | 0.00 | 0.00 | 0.00 | 82 | 1017.5 |
| 20260510120703 | 15 | 344 | 3.2 | 12.9 | 0.00 | 0.00 | 0.00 | 82 | 1017.6 |
| 20260510115703 | 15 | 26 | 6.4 | 19.3 | 0.00 | 0.00 | 0.00 | 82 | 1017.1 |
| 20260510115203 | 15 | 12 | 3.2 | 14.5 | 0.00 | 0.00 | 0.00 | 82 | 1017.0 |
| 20260510114704 | 15 | 171 | 3.2 | 12.9 | 0.00 | 0.00 | 0.00 | 83 | 1016.9 |
| 20260510114203 | 15 | 9 | 8.0 | 16.1 | 0.00 | 0.00 | 0.00 | 83 | 1016.8 |
| 20260510113703 | 15 | 131 | 3.2 | 16.1 | 0.00 | 0.00 | 0.00 | 83 | 1016.8 |
| 20260510113203 | 15 | 21 | 4.8 | 11.3 | 0.00 | 0.00 | 0.00 | 83 | 1016.6 |
| 20260510112704 | 15 | 35 | 6.4 | 12.9 | 0.00 | 0.00 | 0.00 | 83 | 1016.6 |
| 20260510112203 | 15 | 279 | 4.8 | 14.5 | 0.00 | 0.00 | 0.00 | 82 | 1016.7 |
| 20260510111703 | 15 | 125 | 1.6 | 9.7 | 0.00 | 0.00 | 0.00 | 83 | 1016.5 |
| 20260510111203 | 15 | 36 | 1.6 | 16.1 | 0.00 | 0.00 | 0.00 | 83 | 1016.7 |
| 20260510110704 | 15 | 29 | 4.8 | 16.1 | 0.00 | 0.00 | 0.00 | 84 | 1016.6 |
| 20260510105704 | 15 | 26 | 3.2 | 11.3 | 0.00 | 0.00 | 0.00 | 84 | 1016.8 |
| 20260510105203 | 15 | 359 | 1.6 | 11.3 | 0.00 | 0.00 | 0.00 | 84 | 1016.7 |
| 20260510104704 | 15 | 29 | 8.0 | 11.3 | 0.00 | 0.00 | 0.00 | 84 | 1016.5 |
| 20260510104203 | 15 | 44 | 3.2 | 8.0 | 0.00 | 0.00 | 0.00 | 84 | 1016.4 |
| 20260510103703 | 15 | 33 | 0.0 | 8.0 | 0.00 | 0.00 | 0.00 | 83 | 1016.1 |
| 20260510103204 | 15 | 33 | 1.6 | 8.0 | 0.00 | 0.00 | 0.00 | 83 | 1016.1 |
| 20260510102203 | 14 | 59 | 0.0 | 3.2 | 0.00 | 0.00 | 0.00 | 83 | 1015.9 |
| 20260510101704 | 15 | 197 | 0.0 | 4.8 | 0.00 | 0.00 | 0.00 | 83 | 1016.0 |
| 20260510101204 | 15 | 179 | 0.0 | 4.8 | 0.00 | 0.00 | 0.00 | 83 | 1015.9 |
| 20260510100704 | 15 | 182 | 1.6 | 3.2 | 0.00 | 0.00 | 0.00 | 83 | 1015.8 |
| 20260510100203 | 15 | 196 | 0.0 | 4.8 | 0.00 | 0.00 | 0.00 | 83 | 1015.9 |
| 20260510095703 | 15 | 55 | 3.2 | 4.8 | 0.00 | 0.00 | 0.00 | 82 | 1015.7 |
| 20260510095203 | 15 | 53 | 0.0 | 4.8 | 0.00 | 0.00 | 0.00 | 82 | 1015.5 |
| 20260510094703 | 15 | 15 | 1.6 | 9.7 | 0.00 | 0.00 | 0.00 | 82 | 1015.7 |
| 20260510094203 | 15 | 21 | 3.2 | 4.8 | 0.00 | 0.00 | 0.00 | 82 | 1015.4 |
| 20260510093704 | 15 | 25 | 1.6 | 4.8 | 0.00 | 0.00 | 0.00 | 81 | 1015.5 |
| 20260510093203 | 15 | 33 | 3.2 | 4.8 | 0.00 | 0.00 | 0.00 | 81 | 1015.4 |
| 20260510092703 | 15 | 34 | 1.6 | 8.0 | 0.00 | 0.00 | 0.00 | 81 | 1015.3 |
| 20260510092203 | 15 | 11 | 3.2 | 8.0 | 0.00 | 0.00 | 0.00 | 81 | 1015.3 |
| 20260510091704 | 15 | 53 | 1.6 | 4.8 | 0.00 | 0.00 | 0.00 | 80 | 1015.2 |
| 20260510091204 | 15 | 143 | 0.0 | 4.8 | 0.00 | 0.00 | 0.00 | 80 | 1015.2 |
| 20260510090704 | 15 | 186 | 1.6 | 9.7 | 0.00 | 0.00 | 0.00 | 79 | 1015.3 |
| 20260510090204 | 15 | 39 | 4.8 | 9.7 | 0.00 | 0.00 | 0.00 | 79 | 1015.3 |
| 20260510085703 | 15 | 12 | 3.2 | 11.3 | 0.00 | 0.00 | 0.00 | 79 | 1015.1 |
| 20260510085204 | 15 | 15 | 3.2 | 11.3 | 0.00 | 0.00 | 0.00 | 79 | 1015.0 |
| 20260510084703 | 15 | 55 | 1.6 | 4.8 | 0.00 | 0.00 | 0.00 | 78 | 1015.1 |
| 20260510084203 | 15 | 22 | 1.6 | 3.2 | 0.00 | 0.00 | 0.00 | 77 | 1015.0 |
| 20260510083204 | 16 | 34 | 0.0 | 3.2 | 0.00 | 0.00 | 0.00 | 75 | 1014.9 |
| 20260510082703 | 16 | 79 | 0.0 | 4.8 | 0.00 | 0.00 | 0.00 | 75 | 1015.1 |
| 20260510082203 | 16 | 52 | 3.2 | 4.8 | 0.00 | 0.00 | 0.00 | 74 | 1015.0 |
| 20260510081204 | 16 | 36 | 1.6 | 4.8 | 0.00 | 0.00 | 0.00 | 72 | 1014.9 |
| 20260510080704 | 16 | 0 | 1.6 | 4.8 | 0.00 | 0.00 | 0.00 | 72 | 1014.8 |
| 20260510080203 | 16 | 48 | 1.6 | 4.8 | 0.00 | 0.00 | 0.00 | 72 | 1014.8 |
| 20260510075704 | 16 | 22 | 3.2 | 8.0 | 0.00 | 0.00 | 0.00 | 72 | 1014.7 |
| 20260510075203 | 16 | 42 | 0.0 | 4.8 | 0.00 | 0.00 | 0.00 | 72 | 1014.7 |
| 20260510074703 | 16 | 49 | 0.0 | 8.0 | 0.00 | 0.00 | 0.00 | 72 | 1014.6 |
| 20260510073703 | 16 | 45 | 1.6 | 3.2 | 0.00 | 0.00 | 0.00 | 71 | 1014.5 |
| 20260510073203 | 16 | 160 | 0.0 | 4.8 | 0.00 | 0.00 | 0.00 | 72 | 1014.6 |
| 20260510072703 | 16 | 121 | 3.2 | 4.8 | 0.00 | 0.00 | 0.00 | 72 | 1014.8 |
| 20260510072204 | 16 | 53 | 1.6 | 8.0 | 0.00 | 0.00 | 0.00 | 71 | 1014.9 |
| 20260510071703 | 16 | 45 | 3.2 | 8.0 | 0.00 | 0.00 | 0.00 | 72 | 1014.9 |
| 20260510071204 | 16 | 91 | 1.6 | 8.0 | 0.00 | 0.00 | 0.00 | 72 | 1014.8 |
| 20260510065704 | 17 | 39 | 3.2 | 3.2 | 0.00 | 0.00 | 0.00 | 67 | 1014.7 |
| 20260510065203 | 17 | 41 | 0.0 | 3.2 | 0.00 | 0.00 | 0.00 | 65 | 1014.7 |
| 20260510064703 | 17 | 72 | 3.2 | 3.2 | 0.00 | 0.00 | 0.00 | 65 | 1014.8 |
| 20260510063703 | 17 | 37 | 1.6 | 3.2 | 0.00 | 0.00 | 0.00 | 62 | 1015.0 |
| 20260510063204 | 17 | 47 | 0.0 | 3.2 | 0.00 | 0.00 | 0.00 | 63 | 1014.7 |
| 20260510062703 | 17 | 44 | 0.0 | 3.2 | 0.00 | 0.00 | 0.00 | 63 | 1014.7 |
| 20260510062204 | 17 | 227 | 0.0 | 3.2 | 0.00 | 0.00 | 0.00 | 62 | 1014.7 |
| 20260510061704 | 17 | 40 | 0.0 | 3.2 | 0.00 | 0.00 | 0.00 | 61 | 1014.8 |
| 20260510061204 | 18 | 122 | 0.0 | 3.2 | 0.00 | 0.00 | 0.00 | 61 | 1014.7 |
| 20260510055704 | 18 | 153 | 4.8 | 11.3 | 0.00 | 0.00 | 0.00 | 60 | 1014.7 |
| 20260510054704 | 18 | 158 | 9.7 | 12.9 | 0.00 | 0.00 | 0.00 | 60 | 1014.7 |
| 20260510053703 | 17 | 241 | 0.0 | 3.2 | 0.00 | 0.00 | 0.00 | 61 | 1014.7 |
| 20260510053204 | 17 | 239 | 0.0 | 3.2 | 0.00 | 0.00 | 0.00 | 60 | 1014.6 |
| 20260510052704 | 17 | 222 | 0.0 | 3.2 | 0.00 | 0.00 | 0.00 | 60 | 1014.8 |
| 20260510052204 | 18 | 34 | 0.0 | 3.2 | 0.00 | 0.00 | 0.00 | 59 | 1014.6 |
| 20260510051203 | 18 | 343 | 0.0 | 3.2 | 0.00 | 0.00 | 0.00 | 58 | 1014.7 |
| 20260510050703 | 18 | 276 | 0.0 | 3.2 | 0.00 | 0.00 | 0.00 | 57 | 1014.6 |
| 20260510050203 | 18 | 24 | 1.6 | 4.8 | 0.00 | 0.00 | 0.00 | 57 | 1014.5 |
| 20260510045703 | 18 | 296 | 1.6 | 4.8 | 0.00 | 0.48 | 0.00 | 57 | 1014.4 |
| 20260510044703 | 19 | 280 | 3.2 | 4.8 | 0.00 | 0.48 | 0.00 | 55 | 1014.5 |
| 20260510043204 | 20 | 215 | 0.0 | 8.0 | 0.00 | 0.48 | 0.00 | 51 | 1014.6 |
| 20260510042203 | 20 | 84 | 1.6 | 12.9 | 0.00 | 0.48 | 0.00 | 49 | 1014.5 |
| 20260510041704 | 20 | 50 | 4.8 | 19.3 | 0.00 | 0.48 | 0.00 | 49 | 1014.5 |
| 20260510041204 | 20 | 4 | 3.2 | 19.3 | 0.00 | 0.48 | 0.00 | 49 | 1014.3 |
| 20260510040703 | 20 | 21 | 6.4 | 14.5 | 0.00 | 0.48 | 0.00 | 49 | 1014.2 |
| 20260510040204 | 20 | 323 | 0.0 | 8.0 | 0.00 | 0.48 | 0.00 | 48 | 1013.8 |
| 20260510035704 | 20 | 222 | 1.6 | 9.7 | 0.00 | 0.48 | 0.00 | 48 | 1013.6 |
| 20260510035204 | 20 | 351 | 1.6 | 12.9 | 0.00 | 0.48 | 0.00 | 48 | 1013.8 |
| 20260510034704 | 21 | 48 | 6.4 | 12.9 | 0.00 | 0.48 | 0.00 | 47 | 1013.7 |
| 20260510034204 | 21 | 175 | 4.8 | 12.9 | 0.00 | 0.48 | 0.00 | 47 | 1013.7 |
| 20260510033204 | 21 | 152 | 4.8 | 20.9 | 0.00 | 0.48 | 0.00 | 45 | 1013.6 |
| 20260510032703 | 21 | 71 | 4.8 | 9.7 | 0.00 | 0.48 | 0.00 | 45 | 1013.6 |
| 20260510032203 | 20 | 100 | 1.6 | 8.0 | 0.00 | 0.48 | 0.00 | 45 | 1013.7 |
| 20260510031704 | 20 | 47 | 3.2 | 4.8 | 0.00 | 0.48 | 0.00 | 45 | 1013.6 |
| 20260510031203 | 20 | 167 | 1.6 | 4.8 | 0.00 | 0.48 | 0.00 | 45 | 1013.6 |
| 20260510030703 | 20 | 346 | 0.0 | 4.8 | 0.00 | 0.48 | 0.00 | 46 | 1013.6 |
| 20260510030203 | 21 | 81 | 1.6 | 4.8 | 0.00 | 0.48 | 0.00 | 45 | 1013.7 |
| 20260510025704 | 21 | 80 | 0.0 | 11.3 | 0.00 | 0.48 | 0.00 | 46 | 1013.5 |
| 20260510025203 | 21 | 122 | 3.2 | 8.0 | 0.00 | 0.51 | 0.00 | 45 | 1013.5 |
| 20260510024203 | 21 | 219 | 1.6 | 4.8 | 0.00 | 0.56 | 0.00 | 44 | 1013.3 |
| 20260510023204 | 21 | 316 | 1.6 | 4.8 | 0.00 | 0.66 | 0.00 | 44 | 1013.2 |
| 20260510021704 | 22 | 103 | 1.6 | 11.3 | 0.00 | 0.79 | 0.00 | 43 | 1012.8 |
| 20260510021203 | 21 | 123 | 4.8 | 11.3 | 0.00 | 0.84 | 0.00 | 44 | 1012.8 |
| 20260510020204 | 21 | 248 | 0.0 | 4.8 | 0.00 | 0.91 | 0.00 | 44 | 1012.7 |
| 20260510015203 | 21 | 20 | 1.6 | 3.2 | 0.00 | 0.91 | 0.00 | 44 | 1012.7 |
| 20260510014704 | 22 | 180 | 0.0 | 3.2 | 0.00 | 0.91 | 0.00 | 44 | 1012.7 |
| 20260510014204 | 22 | 111 | 0.0 | 0.0 | 0.00 | 0.91 | 0.00 | 43 | 1012.4 |
| 20260510013703 | 22 | 354 | 0.0 | 8.0 | 0.00 | 0.91 | 0.00 | 41 | 1012.5 |
| 20260510012703 | 23 | 306 | 0.0 | 0.0 | 0.00 | 0.91 | 0.00 | 40 | 1012.7 |
| 20260510012204 | 23 | 216 | 0.0 | 4.8 | 0.00 | 0.91 | 0.00 | 38 | 1012.5 |
| 20260510011703 | 23 | 274 | 1.6 | 4.8 | 0.00 | 0.91 | 0.00 | 37 | 1012.6 |
| 20260510011204 | 24 | 154 | 1.6 | 8.0 | 0.00 | 0.91 | 0.00 | 36 | 1012.5 |
| 20260510010703 | 24 | 238 | 3.2 | 4.8 | 0.00 | 0.91 | 0.00 | 36 | 1012.6 |
| 20260510010203 | 25 | 164 | 1.6 | 8.0 | 0.00 | 0.91 | 0.00 | 35 | 1012.4 |
| 20260510004704 | 25 | 40 | 1.6 | 8.0 | 0.00 | 0.91 | 0.00 | 36 | 1012.4 |
| 20260510003704 | 25 | 247 | 1.6 | 4.8 | 0.00 | 0.91 | 0.00 | 36 | 1012.4 |
| 20260510003203 | 25 | 116 | 0.0 | 8.0 | 0.00 | 0.91 | 0.00 | 35 | 1012.5 |
| 20260510002703 | 25 | 231 | 3.2 | 8.0 | 0.00 | 0.91 | 0.00 | 35 | 1012.3 |
| 20260510002203 | 25 | 347 | 0.0 | 9.7 | 0.00 | 0.91 | 0.00 | 34 | 1012.5 |
| 20260510001704 | 25 | 188 | 0.0 | 9.7 | 0.00 | 0.91 | 0.00 | 33 | 1012.5 |
| 20260510001203 | 26 | 158 | 4.8 | 8.0 | 0.00 | 0.91 | 0.00 | 33 | 1012.5 |
| 20260510000704 | 26 | 273 | 3.2 | 8.0 | 0.00 | 0.91 | 0.00 | 32 | 1012.6 |
| 20260509235704 | 26 | 221 | 1.6 | 8.0 | 0.00 | 0.91 | 0.00 | 31 | 1012.7 |
| 20260509235203 | 27 | 170 | 3.2 | 9.7 | 0.00 | 0.91 | 0.00 | 30 | 1012.7 |
| 20260509234204 | 27 | 268 | 4.8 | 8.0 | 0.00 | 0.91 | 0.00 | 29 | 1012.6 |
| 20260509233703 | 27 | 238 | 3.2 | 8.0 | 0.00 | 0.91 | 0.00 | 28 | 1012.7 |
| 20260509232703 | 27 | 161 | 6.4 | 12.9 | 0.00 | 0.91 | 0.00 | 27 | 1012.7 |
| 20260509232204 | 28 | 287 | 8.0 | 14.5 | 0.00 | 0.94 | 0.00 | 26 | 1012.8 |
| 20260509231704 | 28 | 48 | 3.2 | 8.0 | 0.00 | 0.94 | 0.00 | 26 | 1012.7 |
| 20260509231204 | 28 | 299 | 4.8 | 12.9 | 0.00 | 0.94 | 0.00 | 27 | 1012.7 |
| 20260509230703 | 28 | 98 | 3.2 | 14.5 | 0.00 | 0.94 | 0.00 | 28 | 1012.7 |
| 20260509230204 | 28 | 32 | 4.8 | 20.9 | 0.00 | 0.94 | 0.00 | 27 | 1012.9 |
| 20260509225704 | 28 | 251 | 9.7 | 20.9 | 0.00 | 0.94 | 0.00 | 26 | 1012.8 |
| 20260509225203 | 28 | 296 | 6.4 | 16.1 | 0.00 | 0.94 | 0.00 | 25 | 1012.8 |
| 20260509224703 | 28 | 202 | 4.8 | 11.3 | 0.00 | 0.94 | 0.00 | 26 | 1013.0 |
| 20260509224203 | 28 | 187 | 1.6 | 16.1 | 0.00 | 0.94 | 0.00 | 25 | 1012.8 |
| 20260509223703 | 28 | 283 | 9.7 | 16.1 | 0.00 | 0.97 | 0.00 | 26 | 1012.9 |
| 20260509223204 | 28 | 161 | 4.8 | 14.5 | 0.00 | 0.99 | 0.00 | 27 | 1012.9 |
| 20260509222704 | 28 | 239 | 4.8 | 12.9 | 0.00 | 0.99 | 0.00 | 26 | 1012.8 |
| 20260509222204 | 28 | 48 | 8.0 | 12.9 | 0.00 | 0.99 | 0.00 | 26 | 1012.7 |
| 20260509221704 | 28 | 245 | 9.7 | 20.9 | 0.00 | 0.99 | 0.00 | 27 | 1013.0 |
| 20260509221204 | 28 | 236 | 1.6 | 12.9 | 0.00 | 0.99 | 0.00 | 27 | 1012.9 |
| 20260509220703 | 28 | 243 | 4.8 | 16.1 | 0.00 | 0.99 | 0.00 | 26 | 1012.7 |
| 20260509220204 | 28 | 269 | 8.0 | 20.9 | 0.00 | 0.99 | 0.00 | 24 | 1012.8 |
| 20260509215704 | 28 | 247 | 8.0 | 20.9 | 0.00 | 0.99 | 0.00 | 24 | 1012.9 |
| 20260509215203 | 28 | 244 | 8.0 | 20.9 | 0.00 | 0.99 | 0.00 | 26 | 1012.7 |
| 20260509214703 | 28 | 33 | 4.8 | 14.5 | 0.00 | 0.99 | 0.00 | 25 | 1012.8 |
| 20260509214204 | 28 | 324 | 6.4 | 14.5 | 0.00 | 0.99 | 0.00 | 26 | 1012.8 |
| 20260509213704 | 28 | 280 | 1.6 | 19.3 | 0.00 | 0.99 | 0.00 | 25 | 1012.8 |
| 20260509213204 | 28 | 347 | 4.8 | 12.9 | 0.00 | 0.99 | 0.00 | 26 | 1012.7 |
| 20260509212703 | 28 | 268 | 8.0 | 19.3 | 0.00 | 0.99 | 0.00 | 26 | 1012.8 |
| 20260509212204 | 28 | 353 | 6.4 | 14.5 | 0.00 | 0.99 | 0.00 | 28 | 1012.8 |
| 20260509211703 | 28 | 203 | 4.8 | 14.5 | 0.00 | 0.99 | 0.00 | 26 | 1012.7 |
| 20260509211204 | 28 | 221 | 8.0 | 16.1 | 0.00 | 0.99 | 0.00 | 26 | 1013.0 |
| 20260509210703 | 28 | 275 | 6.4 | 29.0 | 0.00 | 0.99 | 0.00 | 27 | 1012.9 |
| 20260509210203 | 28 | 306 | 4.8 | 29.0 | 0.00 | 0.99 | 0.00 | 27 | 1013.1 |
| 20260509205703 | 28 | 232 | 6.4 | 25.7 | 0.00 | 0.99 | 0.00 | 30 | 1013.2 |
| 20260509205204 | 28 | 255 | 9.7 | 24.1 | 0.00 | 0.99 | 0.00 | 27 | 1013.0 |
| 20260509204203 | 28 | 304 | 9.7 | 20.9 | 0.00 | 0.99 | 0.00 | 28 | 1013.4 |
| 20260509203704 | 28 | 270 | 4.8 | 27.4 | 0.00 | 0.99 | 0.00 | 27 | 1013.2 |
| 20260509203204 | 28 | 282 | 4.8 | 19.3 | 0.00 | 0.99 | 0.00 | 31 | 1013.5 |
| 20260509202704 | 28 | 274 | 4.8 | 19.3 | 0.00 | 0.99 | 0.00 | 28 | 1013.4 |
| 20260509201204 | 27 | 257 | 8.0 | 22.5 | 0.00 | 0.99 | 0.00 | 27 | 1013.5 |
| 20260509200704 | 27 | 323 | 9.7 | 27.4 | 0.00 | 0.99 | 0.00 | 29 | 1013.4 |
| 20260509200204 | 28 | 241 | 11.3 | 20.9 | 0.00 | 0.99 | 0.00 | 26 | 1013.4 |
| 20260509195703 | 28 | 25 | 3.2 | 29.0 | 0.00 | 0.99 | 0.00 | 29 | 1013.4 |
| 20260509195203 | 27 | 288 | 8.0 | 29.0 | 0.00 | 0.99 | 0.00 | 26 | 1013.4 |
| 20260509194704 | 27 | 185 | 8.0 | 22.5 | 0.00 | 0.99 | 0.00 | 30 | 1013.6 |
| 20260509194203 | 27 | 256 | 9.7 | 24.1 | 0.00 | 0.99 | 0.00 | 27 | 1013.3 |
| 20260509193704 | 27 | 248 | 14.5 | 32.2 | 0.00 | 0.99 | 0.00 | 27 | 1013.3 |
| 20260509193203 | 27 | 279 | 16.1 | 33.8 | 0.00 | 0.99 | 0.00 | 27 | 1013.4 |
| 20260509192704 | 27 | 59 | 8.0 | 22.5 | 0.00 | 0.99 | 0.00 | 28 | 1013.4 |
| 20260509192203 | 27 | 309 | 14.5 | 27.4 | 0.00 | 0.99 | 0.00 | 27 | 1013.4 |
| 20260509191203 | 27 | 23 | 8.0 | 14.5 | 0.00 | 0.99 | 0.00 | 32 | 1013.4 |